Regional Weather Roundup
Issued by NWS

Home | Current Version | Previous Version | Graphics & Text | Print | Product List | Glossary On
Versions: 1 2 3 4 5 6 7 8 9 10 11 12 13 14 15 16 17 18 19 20 21 22 23 24 25 26 27 28 29 30 31 32 33 34 35 36 37 38 39 40 41 42 43 44 45 46 47 48 49
000
ASUS45 KCYS 211110
RWRWY

WYOMING REGIONAL WEATHER ROUNDUP
NATIONAL WEATHER SERVICE CHEYENNE WY
400 AM MST SUN DEC 21 2014

NOTE:  "FAIR" INDICATES FEW OR NO CLOUDS BELOW 12,000 FEET
WITH NO SIGNIFICANT WEATHER AND/OR OBSTRUCTIONS TO VISIBILITY.

WYZ001-211200-
YELLOWSTONE NATIONAL PARK

CITY           SKY/WX    TMP DP  RH WIND       PRES   REMARKS
LK YELLOWSTONE   N/A     27  23  85 VRB6      29.74F WCI  20
W YELLOWSTONE  NOT AVBL

$$
WYZ002>013-054>058-071-098>099-211200-
NORTHERN WYOMING

CITY           SKY/WX    TMP DP  RH WIND       PRES   REMARKS
JACKSON        CLOUDY    30  30 100 S13       29.77F WCI  20
CODY           CLOUDY    43  27  52 S13G21    29.58F
GREYBULL       FAIR      15  12  88 NW8       29.63F WCI   4
WORLAND        FAIR      15  12  88 S6        29.61F WCI   6
SHERIDAN       FAIR      24  17  74 N7        29.53F WCI  16
BUFFALO        FAIR      34  15  46 S3        29.56F
GILLETTE       FAIR      33  22  63 S14       29.57F WCI  23
HULETT           N/A    N/A N/A N/A MISG        N/A
NEWCASTLE      FAIR      27  23  86 E5        29.67F WCI  21

$$
WYZ014>020-022>026-101>103-211200-
CENTRAL WYOMING

CITY           SKY/WX    TMP DP  RH WIND       PRES   REMARKS
BIG PINEY      LGT SNOW  25  23  92 SE3       29.83F FOG
PINEDALE       LGT SNOW  27  27 100 SE6       29.84F WCI  20
DUBOIS         NOT AVBL
LANDER         FAIR      20  14  77 SW6       29.66F WCI  12
RIVERTON       FAIR      18  14  84 VRB3      29.67F
CASPER         FAIR      34  26  72 SW21      29.68F WCI  22
DOUGLAS        FAIR      33  23  66 SW5       29.68F WCI  29

$$
WYZ021-027>030-104>119-211200-
SOUTHERN WYOMING

CITY           SKY/WX    TMP DP  RH WIND       PRES   REMARKS
EVANSTON       LGT SNOW  31  29  92 SW18      29.93R FOG     WCI  19
KEMMERER       LGT SNOW  32  30  93 SW17      29.88S WCI  21
FORT BRIDGER   CLOUDY    35  30  83 W29G36    29.90R WCI  22
ROCK SPRINGS   LGT SNOW  31  27  85 W17       29.87S FOG     WCI  19
DIXON          CLOUDY    32  27  81 SW16      29.95F WCI  21
RAWLINS        CLOUDY    31  24  75 SW24G35   29.82F WCI  17
SARATOGA       CLOUDY    32  27  80 SW17G23   29.87F WCI  21
LARAMIE        FAIR      28  20  71 S16       29.80F WCI  16
CHEYENNE       FAIR      37  19  48 W20G28    29.76F WCI  27
TORRINGTON     FAIR     N/A N/A N/A S5        29.71F
PINE BLUFFS    FAIR      34  23  64 W12       29.77F WCI  25

$$



USA.gov is the U.S. government's official web portal to all federal, state and local government web resources and services.